owner,sensor,date,latitude,longitude,vertical_datum,mass_concentration_of_oxygen_in_sea_water,qcFlag 
SCCF RECON,ioos:station:SCCF:16:1,2009-09-01T00:00:00Z,26.4345,-81.9647,2.319,6.59,1111122 
SCCF RECON,ioos:station:SCCF:16:1,2009-09-01T01:00:00Z,26.4345,-81.9647,2.446,7.28,1111122 
SCCF RECON,ioos:station:SCCF:16:1,2009-09-01T02:00:00Z,26.4345,-81.9647,2.55,6.54,1111122 
SCCF RECON,ioos:station:SCCF:16:1,2009-09-01T03:00:00Z,26.4345,-81.9647,2.639,6.59,1111122 
SCCF RECON,ioos:station:SCCF:16:1,2009-09-01T04:00:00Z,26.4345,-81.9647,2.663,6.52,1111122 
SCCF RECON,ioos:station:SCCF:16:1,2009-09-01T05:00:00Z,26.4345,-81.9647,2.603,6.59,1111122 
SCCF RECON,ioos:station:SCCF:16:1,2009-09-01T06:00:00Z,26.4345,-81.9647,2.611,6.53,1111122 
SCCF RECON,ioos:station:SCCF:16:1,2009-09-01T07:00:00Z,26.4345,-81.9647,2.534,6.01,1111122 
SCCF RECON,ioos:station:SCCF:16:1,2009-09-01T08:00:00Z,26.4345,-81.9647,2.438,5.98,1111122 
SCCF RECON,ioos:station:SCCF:16:1,2009-09-01T09:00:00Z,26.4345,-81.9647,2.464,5.67,1111122 
SCCF RECON,ioos:station:SCCF:16:1,2009-09-01T10:00:00Z,26.4345,-81.9647,2.453,5.94,1111122 
SCCF RECON,ioos:station:SCCF:16:1,2009-09-01T11:00:00Z,26.4345,-81.9647,2.547,6.06,1111122 
SCCF RECON,ioos:station:SCCF:16:1,2009-09-01T12:00:00Z,26.4345,-81.9647,2.629,6.22,1111122 
SCCF RECON,ioos:station:SCCF:16:1,2009-09-01T13:00:00Z,26.4345,-81.9647,2.733,6.19,1111122 
SCCF RECON,ioos:station:SCCF:16:1,2009-09-01T14:00:00Z,26.4345,-81.9647,2.806,6.31,1111122 
SCCF RECON,ioos:station:SCCF:16:1,2009-09-01T15:00:00Z,26.4345,-81.9647,2.87,6.41,1111122 
SCCF RECON,ioos:station:SCCF:16:1,2009-09-01T17:00:00Z,26.4345,-81.9647,2.748,6.51,1111122 
SCCF RECON,ioos:station:SCCF:16:1,2009-09-01T18:00:00Z,26.4345,-81.9647,2.586,6.54,1111122 
SCCF RECON,ioos:station:SCCF:16:1,2009-09-01T19:00:00Z,26.4345,-81.9647,2.454,6.39,1111122 
SCCF RECON,ioos:station:SCCF:16:1,2009-09-01T20:00:00Z,26.4345,-81.9647,2.248,6.43,1111122 
SCCF RECON,ioos:station:SCCF:16:1,2009-09-01T21:00:00Z,26.4345,-81.9647,2.124,6.73,1111122 
SCCF RECON,ioos:station:SCCF:16:1,2009-09-01T22:00:00Z,26.4345,-81.9647,2.06,6.68,1111122 
SCCF RECON,ioos:station:SCCF:16:1,2009-09-01T23:00:00Z,26.4345,-81.9647,2.105,6.7,1111122 
SCCF RECON,ioos:station:SCCF:16:1,2009-09-02T00:00:00Z,26.4345,-81.9647,2.295,6.89,1111122 
SCCF RECON,ioos:station:SCCF:16:1,2009-09-02T01:00:00Z,26.4345,-81.9647,2.416,6.55,1111122 
SCCF RECON,ioos:station:SCCF:16:1,2009-09-02T02:00:00Z,26.4345,-81.9647,2.52,6.56,1111122 
SCCF RECON,ioos:station:SCCF:16:1,2009-09-02T03:00:00Z,26.4345,-81.9647,2.665,6.77,1111122 
SCCF RECON,ioos:station:SCCF:16:1,2009-09-02T04:00:00Z,26.4345,-81.9647,2.766,6.65,1111122 
SCCF RECON,ioos:station:SCCF:16:1,2009-09-02T05:00:00Z,26.4345,-81.9647,2.739,6.57,1111122 
SCCF RECON,ioos:station:SCCF:16:1,2009-09-02T06:00:00Z,26.4345,-81.9647,2.667,6.52,1111122 
SCCF RECON,ioos:station:SCCF:16:1,2009-09-02T07:00:00Z,26.4345,-81.9647,2.588,6.48,1111122 
SCCF RECON,ioos:station:SCCF:16:1,2009-09-02T08:00:00Z,26.4345,-81.9647,2.502,6.4,1111122 
SCCF RECON,ioos:station:SCCF:16:1,2009-09-02T09:00:00Z,26.4345,-81.9647,2.429,6.38,1111122 
SCCF RECON,ioos:station:SCCF:16:1,2009-09-02T10:00:00Z,26.4345,-81.9647,2.504,5.96,1111122 
SCCF RECON,ioos:station:SCCF:16:1,2009-09-02T11:00:00Z,26.4345,-81.9647,2.516,5.95,1111122 
SCCF RECON,ioos:station:SCCF:16:1,2009-09-02T12:00:00Z,26.4345,-81.9647,2.617,6.29,1111122 
SCCF RECON,ioos:station:SCCF:16:1,2009-09-02T13:00:00Z,26.4345,-81.9647,2.716,6.42,1111122 
SCCF RECON,ioos:station:SCCF:16:1,2009-09-02T14:00:00Z,26.4345,-81.9647,2.805,6.41,1111122 
SCCF RECON,ioos:station:SCCF:16:1,2009-09-02T15:00:00Z,26.4345,-81.9647,2.88,6.13,1111122 
SCCF RECON,ioos:station:SCCF:16:1,2009-09-02T16:00:00Z,26.4345,-81.9647,2.916,6.25,1111122 
SCCF RECON,ioos:station:SCCF:16:1,2009-09-02T17:00:00Z,26.4345,-81.9647,2.844,6.41,1111122 
SCCF RECON,ioos:station:SCCF:16:1,2009-09-02T18:00:00Z,26.4345,-81.9647,2.679,6.45,1111122 
SCCF RECON,ioos:station:SCCF:16:1,2009-09-02T19:00:00Z,26.4345,-81.9647,2.54,6.54,1111122 
SCCF RECON,ioos:station:SCCF:16:1,2009-09-02T20:00:00Z,26.4345,-81.9647,2.377,6.48,1111122 
SCCF RECON,ioos:station:SCCF:16:1,2009-09-02T21:00:00Z,26.4345,-81.9647,2.198,6.55,1111122 
SCCF RECON,ioos:station:SCCF:16:1,2009-09-02T22:00:00Z,26.4345,-81.9647,2.096,6.6,1111122 
SCCF RECON,ioos:station:SCCF:16:1,2009-09-02T23:00:00Z,26.4345,-81.9647,2.106,6.33,1111122 
SCCF RECON,ioos:station:SCCF:16:1,2009-09-03T00:00:00Z,26.4345,-81.9647,2.272,6.32,1111122 
SCCF RECON,ioos:station:SCCF:16:1,2009-09-03T01:00:00Z,26.4345,-81.9647,2.468,6.31,1111122 
SCCF RECON,ioos:station:SCCF:16:1,2009-09-03T02:00:00Z,26.4345,-81.9647,2.575,6.47,1111122 
SCCF RECON,ioos:station:SCCF:16:1,2009-09-03T03:00:00Z,26.4345,-81.9647,2.638,6.69,1111122 
SCCF RECON,ioos:station:SCCF:16:1,2009-09-03T04:00:00Z,26.4345,-81.9647,2.799,6.66,1111122 
SCCF RECON,ioos:station:SCCF:16:1,2009-09-03T05:00:00Z,26.4345,-81.9647,2.768,6.5,1111122 
SCCF RECON,ioos:station:SCCF:16:1,2009-09-03T06:00:00Z,26.4345,-81.9647,2.682,6.13,1111122 
SCCF RECON,ioos:station:SCCF:16:1,2009-09-03T07:00:00Z,26.4345,-81.9647,2.621,6.01,1111122 
SCCF RECON,ioos:station:SCCF:16:1,2009-09-03T08:00:00Z,26.4345,-81.9647,2.56,5.44,1111122 
SCCF RECON,ioos:station:SCCF:16:1,2009-09-03T09:00:00Z,26.4345,-81.9647,2.46,5.95,1111122 
SCCF RECON,ioos:station:SCCF:16:1,2009-09-03T10:00:00Z,26.4345,-81.9647,2.383,6.03,1111122 
SCCF RECON,ioos:station:SCCF:16:1,2009-09-03T11:00:00Z,26.4345,-81.9647,2.383,5.76,1111122 
SCCF RECON,ioos:station:SCCF:16:1,2009-09-03T12:00:00Z,26.4345,-81.9647,2.46,5.84,1111122 
SCCF RECON,ioos:station:SCCF:16:1,2009-09-03T13:00:00Z,26.4345,-81.9647,2.631,6.03,1111122 
SCCF RECON,ioos:station:SCCF:16:1,2009-09-03T14:00:00Z,26.4345,-81.9647,2.802,6.19,1111122 
SCCF RECON,ioos:station:SCCF:16:1,2009-09-03T15:00:00Z,26.4345,-81.9647,2.909,6.23,1111122 
SCCF RECON,ioos:station:SCCF:16:1,2009-09-03T16:00:00Z,26.4345,-81.9647,2.956,5.93,1111122 
SCCF RECON,ioos:station:SCCF:16:1,2009-09-03T17:00:00Z,26.4345,-81.9647,2.939,5.19,1111122 
SCCF RECON,ioos:station:SCCF:16:1,2009-09-03T18:00:00Z,26.4345,-81.9647,2.787,4.97,1111122 
SCCF RECON,ioos:station:SCCF:16:1,2009-09-03T19:00:00Z,26.4345,-81.9647,2.589,5.19,1111122 
SCCF RECON,ioos:station:SCCF:16:1,2009-09-03T20:00:00Z,26.4345,-81.9647,2.409,5.72,1111122 
SCCF RECON,ioos:station:SCCF:16:1,2009-09-03T21:00:00Z,26.4345,-81.9647,2.301,5.89,1111122 
SCCF RECON,ioos:station:SCCF:16:1,2009-09-03T22:00:00Z,26.4345,-81.9647,2.184,6.09,1111122 
SCCF RECON,ioos:station:SCCF:16:1,2009-09-03T23:00:00Z,26.4345,-81.9647,2.099,5.64,1111122 
SCCF RECON,ioos:station:SCCF:16:1,2009-09-04T00:00:00Z,26.4345,-81.9647,2.192,5.63,1111122 
SCCF RECON,ioos:station:SCCF:16:1,2009-09-04T01:00:00Z,26.4345,-81.9647,2.375,5.58,1111122 
SCCF RECON,ioos:station:SCCF:16:1,2009-09-04T02:00:00Z,26.4345,-81.9647,2.547,5.49,1111122 
SCCF RECON,ioos:station:SCCF:16:1,2009-09-04T03:00:00Z,26.4345,-81.9647,2.624,5.61,1111122 
SCCF RECON,ioos:station:SCCF:16:1,2009-09-04T04:00:00Z,26.4345,-81.9647,2.742,5.26,1111122 
SCCF RECON,ioos:station:SCCF:16:1,2009-09-04T05:00:00Z,26.4345,-81.9647,2.799,5.25,1111122 
SCCF RECON,ioos:station:SCCF:16:1,2009-09-04T06:00:00Z,26.4345,-81.9647,2.812,5.18,1111122 
SCCF RECON,ioos:station:SCCF:16:1,2009-09-04T07:00:00Z,26.4345,-81.9647,2.688,4.78,1111122 
SCCF RECON,ioos:station:SCCF:16:1,2009-09-04T08:00:00Z,26.4345,-81.9647,2.559,5.16,1111122 
SCCF RECON,ioos:station:SCCF:16:1,2009-09-04T09:00:00Z,26.4345,-81.9647,2.434,4.68,1111122 
SCCF RECON,ioos:station:SCCF:16:1,2009-09-04T10:00:00Z,26.4345,-81.9647,2.361,4.6,1111122 
SCCF RECON,ioos:station:SCCF:16:1,2009-09-04T11:00:00Z,26.4345,-81.9647,2.331,5.62,1111122 
SCCF RECON,ioos:station:SCCF:16:1,2009-09-04T12:00:00Z,26.4345,-81.9647,2.405,4.89,1111122 
SCCF RECON,ioos:station:SCCF:16:1,2009-09-04T13:00:00Z,26.4345,-81.9647,2.536,4.88,1111122 
SCCF RECON,ioos:station:SCCF:16:1,2009-09-04T14:00:00Z,26.4345,-81.9647,2.758,5.65,1111122 
SCCF RECON,ioos:station:SCCF:16:1,2009-09-04T15:00:00Z,26.4345,-81.9647,2.851,4.68,1111122 
SCCF RECON,ioos:station:SCCF:16:1,2009-09-04T16:00:00Z,26.4345,-81.9647,2.89,5.14,1111122 
SCCF RECON,ioos:station:SCCF:16:1,2009-09-04T17:00:00Z,26.4345,-81.9647,2.938,5.66,1111122 
SCCF RECON,ioos:station:SCCF:16:1,2009-09-04T18:00:00Z,26.4345,-81.9647,2.906,6.0,1111122 
SCCF RECON,ioos:station:SCCF:16:1,2009-09-04T19:00:00Z,26.4345,-81.9647,2.778,5.85,1111122 
SCCF RECON,ioos:station:SCCF:16:1,2009-09-04T20:00:00Z,26.4345,-81.9647,2.594,6.31,1111122 
SCCF RECON,ioos:station:SCCF:16:1,2009-09-04T21:00:00Z,26.4345,-81.9647,2.425,5.93,1111122 
SCCF RECON,ioos:station:SCCF:16:1,2009-09-04T22:00:00Z,26.4345,-81.9647,2.28,6.09,1111122 
SCCF RECON,ioos:station:SCCF:16:1,2009-09-04T23:00:00Z,26.4345,-81.9647,2.171,6.21,1111122 
SCCF RECON,ioos:station:SCCF:16:1,2009-09-05T00:00:00Z,26.4345,-81.9647,2.158,5.84,1111122 
SCCF RECON,ioos:station:SCCF:16:1,2009-09-05T01:00:00Z,26.4345,-81.9647,2.34,5.72,1111122 
SCCF RECON,ioos:station:SCCF:16:1,2009-09-05T02:00:00Z,26.4345,-81.9647,2.482,5.92,1111122 
SCCF RECON,ioos:station:SCCF:16:1,2009-09-05T03:00:00Z,26.4345,-81.9647,2.661,5.68,1111122 
SCCF RECON,ioos:station:SCCF:16:1,2009-09-05T04:00:00Z,26.4345,-81.9647,2.771,5.62,1111122 
SCCF RECON,ioos:station:SCCF:16:1,2009-09-05T05:00:00Z,26.4345,-81.9647,2.839,5.65,1111122 
SCCF RECON,ioos:station:SCCF:16:1,2009-09-05T06:00:00Z,26.4345,-81.9647,2.811,5.73,1111122 
SCCF RECON,ioos:station:SCCF:16:1,2009-09-05T07:00:00Z,26.4345,-81.9647,2.727,5.38,1111122 
SCCF RECON,ioos:station:SCCF:16:1,2009-09-05T08:00:00Z,26.4345,-81.9647,2.702,5.32,1111122 
SCCF RECON,ioos:station:SCCF:16:1,2009-09-05T09:00:00Z,26.4345,-81.9647,2.503,4.86,1111122 
SCCF RECON,ioos:station:SCCF:16:1,2009-09-05T10:00:00Z,26.4345,-81.9647,2.351,5.48,1111122 
SCCF RECON,ioos:station:SCCF:16:1,2009-09-05T11:00:00Z,26.4345,-81.9647,2.259,5.39,1111122 
SCCF RECON,ioos:station:SCCF:16:1,2009-09-05T12:00:00Z,26.4345,-81.9647,2.286,5.15,1111122 
SCCF RECON,ioos:station:SCCF:16:1,2009-09-05T13:00:00Z,26.4345,-81.9647,2.363,5.04,1111122 
SCCF RECON,ioos:station:SCCF:16:1,2009-09-05T14:00:00Z,26.4345,-81.9647,2.604,5.34,1111122 
SCCF RECON,ioos:station:SCCF:16:1,2009-09-05T15:00:00Z,26.4345,-81.9647,2.783,5.54,1111122 
SCCF RECON,ioos:station:SCCF:16:1,2009-09-05T16:00:00Z,26.4345,-81.9647,2.847,5.42,1111122 
SCCF RECON,ioos:station:SCCF:16:1,2009-09-05T17:00:00Z,26.4345,-81.9647,2.901,5.79,1111122 
SCCF RECON,ioos:station:SCCF:16:1,2009-09-05T18:00:00Z,26.4345,-81.9647,2.932,5.09,1111122 
SCCF RECON,ioos:station:SCCF:16:1,2009-09-05T19:00:00Z,26.4345,-81.9647,2.883,4.76,1111122 
SCCF RECON,ioos:station:SCCF:16:1,2009-09-05T20:00:00Z,26.4345,-81.9647,2.741,5.25,1111122 
SCCF RECON,ioos:station:SCCF:16:1,2009-09-05T21:00:00Z,26.4345,-81.9647,2.516,5.62,1111122 
SCCF RECON,ioos:station:SCCF:16:1,2009-09-05T22:00:00Z,26.4345,-81.9647,2.305,5.39,1111122 
SCCF RECON,ioos:station:SCCF:16:1,2009-09-05T23:00:00Z,26.4345,-81.9647,2.249,5.44,1111122 
SCCF RECON,ioos:station:SCCF:16:1,2009-09-06T00:00:00Z,26.4345,-81.9647,2.207,5.62,1111122 
SCCF RECON,ioos:station:SCCF:16:1,2009-09-06T01:00:00Z,26.4345,-81.9647,2.279,5.71,1111122 
SCCF RECON,ioos:station:SCCF:16:1,2009-09-06T02:00:00Z,26.4345,-81.9647,2.453,5.41,1111122 
SCCF RECON,ioos:station:SCCF:16:1,2009-09-06T03:00:00Z,26.4345,-81.9647,2.711,5.59,1111122 
SCCF RECON,ioos:station:SCCF:16:1,2009-09-06T04:00:00Z,26.4345,-81.9647,2.862,5.95,1111122 
SCCF RECON,ioos:station:SCCF:16:1,2009-09-06T05:00:00Z,26.4345,-81.9647,2.863,5.9,1111122 
SCCF RECON,ioos:station:SCCF:16:1,2009-09-06T06:00:00Z,26.4345,-81.9647,2.856,5.63,1111122 
SCCF RECON,ioos:station:SCCF:16:1,2009-09-06T07:00:00Z,26.4345,-81.9647,2.806,5.52,1111122 
SCCF RECON,ioos:station:SCCF:16:1,2009-09-06T08:00:00Z,26.4345,-81.9647,2.676,5.38,1111122 
SCCF RECON,ioos:station:SCCF:16:1,2009-09-06T09:00:00Z,26.4345,-81.9647,2.499,5.28,1111122 
SCCF RECON,ioos:station:SCCF:16:1,2009-09-06T10:00:00Z,26.4345,-81.9647,2.333,5.11,1111122 
SCCF RECON,ioos:station:SCCF:16:1,2009-09-06T11:00:00Z,26.4345,-81.9647,2.249,4.9,1111122 
SCCF RECON,ioos:station:SCCF:16:1,2009-09-06T12:00:00Z,26.4345,-81.9647,2.219,4.99,1111122 
SCCF RECON,ioos:station:SCCF:16:1,2009-09-06T13:00:00Z,26.4345,-81.9647,2.261,4.85,1111122 
SCCF RECON,ioos:station:SCCF:16:1,2009-09-06T14:00:00Z,26.4345,-81.9647,2.418,5.23,1111122 
SCCF RECON,ioos:station:SCCF:16:1,2009-09-06T15:00:00Z,26.4345,-81.9647,2.636,5.17,1111122 
SCCF RECON,ioos:station:SCCF:16:1,2009-09-06T16:00:00Z,26.4345,-81.9647,2.765,5.6,1111122 
SCCF RECON,ioos:station:SCCF:16:1,2009-09-06T17:00:00Z,26.4345,-81.9647,2.867,6.51,1111122 
SCCF RECON,ioos:station:SCCF:16:1,2009-09-06T18:00:00Z,26.4345,-81.9647,2.885,6.62,1111122 
SCCF RECON,ioos:station:SCCF:16:1,2009-09-06T19:00:00Z,26.4345,-81.9647,2.872,6.52,1111122 
SCCF RECON,ioos:station:SCCF:16:1,2009-09-06T20:00:00Z,26.4345,-81.9647,2.764,5.9,1111122 
SCCF RECON,ioos:station:SCCF:16:1,2009-09-06T21:00:00Z,26.4345,-81.9647,2.634,5.71,1111122 
SCCF RECON,ioos:station:SCCF:16:1,2009-09-06T22:00:00Z,26.4345,-81.9647,2.464,7.53,1111122 
SCCF RECON,ioos:station:SCCF:16:1,2009-09-06T23:00:00Z,26.4345,-81.9647,2.366,7.01,1111122 
SCCF RECON,ioos:station:SCCF:16:1,2009-09-07T00:00:00Z,26.4345,-81.9647,2.303,7.0,1111122 
SCCF RECON,ioos:station:SCCF:16:1,2009-09-07T01:00:00Z,26.4345,-81.9647,2.31,6.72,1111122 
SCCF RECON,ioos:station:SCCF:16:1,2009-09-07T02:00:00Z,26.4345,-81.9647,2.481,6.48,1111122 
SCCF RECON,ioos:station:SCCF:16:1,2009-09-07T03:00:00Z,26.4345,-81.9647,2.575,6.38,1111122 
SCCF RECON,ioos:station:SCCF:16:1,2009-09-07T04:00:00Z,26.4345,-81.9647,2.749,6.78,1111122 
SCCF RECON,ioos:station:SCCF:16:1,2009-09-07T05:00:00Z,26.4345,-81.9647,2.805,6.6,1111122 
SCCF RECON,ioos:station:SCCF:16:1,2009-09-07T06:00:00Z,26.4345,-81.9647,2.875,6.24,1111122 
SCCF RECON,ioos:station:SCCF:16:1,2009-09-07T07:00:00Z,26.4345,-81.9647,2.838,4.97,1111122 
SCCF RECON,ioos:station:SCCF:16:1,2009-09-07T08:00:00Z,26.4345,-81.9647,2.701,5.42,1111122 
SCCF RECON,ioos:station:SCCF:16:1,2009-09-07T09:00:00Z,26.4345,-81.9647,2.554,5.66,1111122 
SCCF RECON,ioos:station:SCCF:16:1,2009-09-07T10:00:00Z,26.4345,-81.9647,2.374,6.14,1111122 
SCCF RECON,ioos:station:SCCF:16:1,2009-09-07T11:00:00Z,26.4345,-81.9647,2.245,5.59,1111122 
SCCF RECON,ioos:station:SCCF:16:1,2009-09-07T12:00:00Z,26.4345,-81.9647,2.11,5.38,1111122 
SCCF RECON,ioos:station:SCCF:16:1,2009-09-07T13:00:00Z,26.4345,-81.9647,2.11,5.45,1111122 
SCCF RECON,ioos:station:SCCF:16:1,2009-09-07T14:00:00Z,26.4345,-81.9647,2.23,5.35,1111122 
SCCF RECON,ioos:station:SCCF:16:1,2009-09-07T15:00:00Z,26.4345,-81.9647,2.456,5.45,1111122 
SCCF RECON,ioos:station:SCCF:16:1,2009-09-07T16:00:00Z,26.4345,-81.9647,2.591,5.82,1111122 
SCCF RECON,ioos:station:SCCF:16:1,2009-09-07T17:00:00Z,26.4345,-81.9647,2.718,6.16,1111122 
SCCF RECON,ioos:station:SCCF:16:1,2009-09-07T18:00:00Z,26.4345,-81.9647,2.798,6.53,1111122 
SCCF RECON,ioos:station:SCCF:16:1,2009-09-07T19:00:00Z,26.4345,-81.9647,2.803,6.68,1111122 
SCCF RECON,ioos:station:SCCF:16:1,2009-09-07T20:00:00Z,26.4345,-81.9647,2.747,6.59,1111122 
SCCF RECON,ioos:station:SCCF:16:1,2009-09-07T21:00:00Z,26.4345,-81.9647,2.648,6.54,1111122 
SCCF RECON,ioos:station:SCCF:16:1,2009-09-07T22:00:00Z,26.4345,-81.9647,2.543,6.77,1111122 
SCCF RECON,ioos:station:SCCF:16:1,2009-09-07T23:00:00Z,26.4345,-81.9647,2.444,7.21,1111122 
SCCF RECON,ioos:station:SCCF:16:1,2009-09-08T00:00:00Z,26.4345,-81.9647,2.381,6.56,1111122 
SCCF RECON,ioos:station:SCCF:16:1,2009-09-08T01:00:00Z,26.4345,-81.9647,2.384,6.9,1111122 
SCCF RECON,ioos:station:SCCF:16:1,2009-09-08T02:00:00Z,26.4345,-81.9647,2.455,6.96,1111122 
SCCF RECON,ioos:station:SCCF:16:1,2009-09-08T03:00:00Z,26.4345,-81.9647,2.598,6.89,1111122 
SCCF RECON,ioos:station:SCCF:16:1,2009-09-08T04:00:00Z,26.4345,-81.9647,2.754,7.47,1111122 
SCCF RECON,ioos:station:SCCF:16:1,2009-09-08T05:00:00Z,26.4345,-81.9647,2.852,7.01,1111122 
SCCF RECON,ioos:station:SCCF:16:1,2009-09-08T06:00:00Z,26.4345,-81.9647,2.868,6.74,1111122 
SCCF RECON,ioos:station:SCCF:16:1,2009-09-08T07:00:00Z,26.4345,-81.9647,2.881,5.86,1111122 
SCCF RECON,ioos:station:SCCF:16:1,2009-09-08T08:00:00Z,26.4345,-81.9647,2.797,5.66,1111122 
SCCF RECON,ioos:station:SCCF:16:1,2009-09-08T09:00:00Z,26.4345,-81.9647,2.705,5.28,1111122 
SCCF RECON,ioos:station:SCCF:16:1,2009-09-08T10:00:00Z,26.4345,-81.9647,2.54,5.93,1111122 
SCCF RECON,ioos:station:SCCF:16:1,2009-09-08T11:00:00Z,26.4345,-81.9647,2.377,5.78,1111122 
SCCF RECON,ioos:station:SCCF:16:1,2009-09-08T12:00:00Z,26.4345,-81.9647,2.236,5.19,1111122 
SCCF RECON,ioos:station:SCCF:16:1,2009-09-08T13:00:00Z,26.4345,-81.9647,2.119,5.66,1111122 
SCCF RECON,ioos:station:SCCF:16:1,2009-09-08T14:00:00Z,26.4345,-81.9647,2.132,5.57,1111122 
SCCF RECON,ioos:station:SCCF:16:1,2009-09-08T15:00:00Z,26.4345,-81.9647,2.294,5.49,1111122 
SCCF RECON,ioos:station:SCCF:16:1,2009-09-08T16:00:00Z,26.4345,-81.9647,2.489,5.54,1111122 
SCCF RECON,ioos:station:SCCF:16:1,2009-09-08T17:00:00Z,26.4345,-81.9647,2.635,6.44,1111122 
SCCF RECON,ioos:station:SCCF:16:1,2009-09-08T18:00:00Z,26.4345,-81.9647,2.702,6.61,1111122 
SCCF RECON,ioos:station:SCCF:16:1,2009-09-08T19:00:00Z,26.4345,-81.9647,2.738,6.65,1111122 
SCCF RECON,ioos:station:SCCF:16:1,2009-09-08T20:00:00Z,26.4345,-81.9647,2.74,7.02,1111122 
SCCF RECON,ioos:station:SCCF:16:1,2009-09-08T21:00:00Z,26.4345,-81.9647,2.698,7.04,1111122 
SCCF RECON,ioos:station:SCCF:16:1,2009-09-08T22:00:00Z,26.4345,-81.9647,2.614,6.85,1111122 
SCCF RECON,ioos:station:SCCF:16:1,2009-09-08T23:00:00Z,26.4345,-81.9647,2.543,7.07,1111122 
SCCF RECON,ioos:station:SCCF:16:1,2009-09-09T00:00:00Z,26.4345,-81.9647,2.454,7.34,1111122 
SCCF RECON,ioos:station:SCCF:16:1,2009-09-09T01:00:00Z,26.4345,-81.9647,2.459,7.01,1111122 
SCCF RECON,ioos:station:SCCF:16:1,2009-09-09T02:00:00Z,26.4345,-81.9647,2.493,6.88,1111122 
SCCF RECON,ioos:station:SCCF:16:1,2009-09-09T03:00:00Z,26.4345,-81.9647,2.552,6.85,1111122 
SCCF RECON,ioos:station:SCCF:16:1,2009-09-09T04:00:00Z,26.4345,-81.9647,2.659,6.93,1111122 
SCCF RECON,ioos:station:SCCF:16:1,2009-09-09T05:00:00Z,26.4345,-81.9647,2.753,7.02,1111122 
SCCF RECON,ioos:station:SCCF:16:1,2009-09-09T06:00:00Z,26.4345,-81.9647,2.835,6.79,1111122 
SCCF RECON,ioos:station:SCCF:16:1,2009-09-09T07:00:00Z,26.4345,-81.9647,2.905,5.3,1111122 
SCCF RECON,ioos:station:SCCF:16:1,2009-09-09T08:00:00Z,26.4345,-81.9647,2.895,4.64,1111122 
SCCF RECON,ioos:station:SCCF:16:1,2009-09-09T09:00:00Z,26.4345,-81.9647,2.803,4.55,1111122 
SCCF RECON,ioos:station:SCCF:16:1,2009-09-09T10:00:00Z,26.4345,-81.9647,2.651,4.27,1111122 
SCCF RECON,ioos:station:SCCF:16:1,2009-09-09T11:00:00Z,26.4345,-81.9647,2.5,4.77,1111122 
SCCF RECON,ioos:station:SCCF:16:1,2009-09-09T12:00:00Z,26.4345,-81.9647,2.351,5.0,1111122 
SCCF RECON,ioos:station:SCCF:16:1,2009-09-09T13:00:00Z,26.4345,-81.9647,2.194,5.19,1111122 
SCCF RECON,ioos:station:SCCF:16:1,2009-09-09T14:00:00Z,26.4345,-81.9647,2.09,5.33,1111122 
SCCF RECON,ioos:station:SCCF:16:1,2009-09-09T15:00:00Z,26.4345,-81.9647,2.174,5.49,1111122 
SCCF RECON,ioos:station:SCCF:16:1,2009-09-09T16:00:00Z,26.4345,-81.9647,2.278,5.48,1111122 
SCCF RECON,ioos:station:SCCF:16:1,2009-09-09T17:00:00Z,26.4345,-81.9647,2.458,5.71,1111122 
SCCF RECON,ioos:station:SCCF:16:1,2009-09-09T18:00:00Z,26.4345,-81.9647,2.597,6.32,1111122 
SCCF RECON,ioos:station:SCCF:16:1,2009-09-09T19:00:00Z,26.4345,-81.9647,2.635,5.78,1111122 
SCCF RECON,ioos:station:SCCF:16:1,2009-09-09T20:00:00Z,26.4345,-81.9647,2.684,5.9,1111122 
SCCF RECON,ioos:station:SCCF:16:1,2009-09-09T21:00:00Z,26.4345,-81.9647,2.765,5.94,1111122 
SCCF RECON,ioos:station:SCCF:16:1,2009-09-09T22:00:00Z,26.4345,-81.9647,2.674,6.31,1111122 
SCCF RECON,ioos:station:SCCF:16:1,2009-09-09T23:00:00Z,26.4345,-81.9647,2.608,6.5,1111122 
SCCF RECON,ioos:station:SCCF:16:1,2009-09-10T00:00:00Z,26.4345,-81.9647,2.545,6.33,1111122 
SCCF RECON,ioos:station:SCCF:16:1,2009-09-10T01:00:00Z,26.4345,-81.9647,2.544,6.32,1111122 
SCCF RECON,ioos:station:SCCF:16:1,2009-09-10T02:00:00Z,26.4345,-81.9647,2.515,6.08,1111122 
SCCF RECON,ioos:station:SCCF:16:1,2009-09-10T03:00:00Z,26.4345,-81.9647,2.555,6.13,1111122 
SCCF RECON,ioos:station:SCCF:16:1,2009-09-10T04:00:00Z,26.4345,-81.9647,2.629,6.17,1111122 
SCCF RECON,ioos:station:SCCF:16:1,2009-09-10T05:00:00Z,26.4345,-81.9647,2.774,6.36,1111122 
SCCF RECON,ioos:station:SCCF:16:1,2009-09-10T06:00:00Z,26.4345,-81.9647,2.863,6.19,1111122 
SCCF RECON,ioos:station:SCCF:16:1,2009-09-10T07:00:00Z,26.4345,-81.9647,2.852,6.01,1111122 
SCCF RECON,ioos:station:SCCF:16:1,2009-09-10T08:00:00Z,26.4345,-81.9647,2.91,6.18,1111122 
SCCF RECON,ioos:station:SCCF:16:1,2009-09-10T09:00:00Z,26.4345,-81.9647,2.911,6.08,1111122 
SCCF RECON,ioos:station:SCCF:16:1,2009-09-10T10:00:00Z,26.4345,-81.9647,2.895,5.99,1111122 
SCCF RECON,ioos:station:SCCF:16:1,2009-09-10T11:00:00Z,26.4345,-81.9647,2.756,5.66,1111122 
SCCF RECON,ioos:station:SCCF:16:1,2009-09-10T12:00:00Z,26.4345,-81.9647,2.553,5.6,1111122 
SCCF RECON,ioos:station:SCCF:16:1,2009-09-10T13:00:00Z,26.4345,-81.9647,2.307,5.5,1111122 
SCCF RECON,ioos:station:SCCF:16:1,2009-09-10T14:00:00Z,26.4345,-81.9647,2.286,5.15,1111122 
SCCF RECON,ioos:station:SCCF:16:1,2009-09-10T15:00:00Z,26.4345,-81.9647,2.187,5.26,1111122 
SCCF RECON,ioos:station:SCCF:16:1,2009-09-10T16:00:00Z,26.4345,-81.9647,2.219,5.29,1111122 
SCCF RECON,ioos:station:SCCF:16:1,2009-09-10T17:00:00Z,26.4345,-81.9647,2.375,5.5,1111122 
SCCF RECON,ioos:station:SCCF:16:1,2009-09-10T18:00:00Z,26.4345,-81.9647,2.507,5.78,1111122 
SCCF RECON,ioos:station:SCCF:16:1,2009-09-10T19:00:00Z,26.4345,-81.9647,2.581,6.26,1111122 
SCCF RECON,ioos:station:SCCF:16:1,2009-09-10T20:00:00Z,26.4345,-81.9647,2.672,6.39,1111122 
SCCF RECON,ioos:station:SCCF:16:1,2009-09-10T21:00:00Z,26.4345,-81.9647,2.699,6.44,1111122 
SCCF RECON,ioos:station:SCCF:16:1,2009-09-10T22:00:00Z,26.4345,-81.9647,2.689,6.09,1111122 
SCCF RECON,ioos:station:SCCF:16:1,2009-09-10T23:00:00Z,26.4345,-81.9647,2.691,6.15,1111122 
SCCF RECON,ioos:station:SCCF:16:1,2009-09-11T00:00:00Z,26.4345,-81.9647,2.696,6.01,1111122 
SCCF RECON,ioos:station:SCCF:16:1,2009-09-11T01:00:00Z,26.4345,-81.9647,2.655,5.91,1111122 
SCCF RECON,ioos:station:SCCF:16:1,2009-09-11T02:00:00Z,26.4345,-81.9647,2.702,6.04,1111122 
SCCF RECON,ioos:station:SCCF:16:1,2009-09-11T03:00:00Z,26.4345,-81.9647,2.622,5.73,1111122 
SCCF RECON,ioos:station:SCCF:16:1,2009-09-11T04:00:00Z,26.4345,-81.9647,2.668,5.62,1111122 
SCCF RECON,ioos:station:SCCF:16:1,2009-09-11T05:00:00Z,26.4345,-81.9647,2.721,5.82,1111122 
SCCF RECON,ioos:station:SCCF:16:1,2009-09-11T06:00:00Z,26.4345,-81.9647,2.851,5.62,1111122 
SCCF RECON,ioos:station:SCCF:16:1,2009-09-11T07:00:00Z,26.4345,-81.9647,2.956,5.52,1111122 
SCCF RECON,ioos:station:SCCF:16:1,2009-09-11T08:00:00Z,26.4345,-81.9647,2.954,5.22,1111122 
SCCF RECON,ioos:station:SCCF:16:1,2009-09-11T09:00:00Z,26.4345,-81.9647,2.934,5.09,1111122 
SCCF RECON,ioos:station:SCCF:16:1,2009-09-11T10:00:00Z,26.4345,-81.9647,2.893,5.0,1111122 
SCCF RECON,ioos:station:SCCF:16:1,2009-09-11T11:00:00Z,26.4345,-81.9647,2.891,4.94,1111122 
SCCF RECON,ioos:station:SCCF:16:1,2009-09-11T12:00:00Z,26.4345,-81.9647,2.752,4.52,1111122 
SCCF RECON,ioos:station:SCCF:16:1,2009-09-11T13:00:00Z,26.4345,-81.9647,2.59,4.74,1111122 
SCCF RECON,ioos:station:SCCF:16:1,2009-09-11T14:00:00Z,26.4345,-81.9647,2.416,5.04,1111122 
SCCF RECON,ioos:station:SCCF:16:1,2009-09-11T15:00:00Z,26.4345,-81.9647,2.3,5.18,1111122 
SCCF RECON,ioos:station:SCCF:16:1,2009-09-11T16:00:00Z,26.4345,-81.9647,2.237,5.28,1111122 
SCCF RECON,ioos:station:SCCF:16:1,2009-09-11T17:00:00Z,26.4345,-81.9647,2.224,5.25,1111122 
SCCF RECON,ioos:station:SCCF:16:1,2009-09-11T18:00:00Z,26.4345,-81.9647,2.339,5.25,1111122 
SCCF RECON,ioos:station:SCCF:16:1,2009-09-11T19:00:00Z,26.4345,-81.9647,2.455,5.3,1111122 
SCCF RECON,ioos:station:SCCF:16:1,2009-09-11T20:00:00Z,26.4345,-81.9647,2.558,5.27,1111122 